Regional Weather Roundup
Issued by NWS

Home | Current Version | Previous Version | Graphics & Text | Print | Product List | Glossary On
Versions: 1 2 3 4 5 6 7 8 9 10 11 12 13 14 15 16 17 18 19 20 21 22 23 24 25 26 27 28 29 30 31 32 33 34 35 36 37 38 39 40 41 42 43 44 45 46 47 48 49 50
000
ASUS43 KIND 030409
RWRIN

WEATHER ROUNDUP FOR INDIANA
NATIONAL WEATHER SERVICE INDIANAPOLIS IN
1100 PM EST MON MAR 02 2015

NOTE: "FAIR" INDICATES FEW OR NO CLOUDS BELOW 12,000 FEET WITH NO
SIGNIFICANT WEATHER AND/OR OBSTRUCTIONS TO VISIBILITY.

* - STATION DOES NOT REPORT WEATHER SUCH AS PRECIPITATION OR FOG.

+ - STATION NOT QUALITY CONTROLLED BY THE NATIONAL WEATHER SERVICE.
    USE DATA WITH CAUTION...ESPECIALLY DEWPOINT AND RELATIVE
    HUMIDITY OBSERVATIONS.

INZ001>003-010>013-019-020-030500-
NORTHWEST INDIANA

CITY           SKY/WX    TMP DP  RH WIND       PRES   REMARKS
GARY /AIRPORT/ CLOUDY    28  11  47 S6        30.32F WCI  22
KNOX *+          N/A     27   3  36 S8        30.32F WCI  18
LA PORTE +     CLOUDY    27  17  66 S3        30.32F
MICHIGAN CITY+ CLOUDY    27  10  50 S5        30.32F WCI  21
MONTICELLO +   CLOUDY    25  15  67 SE5       30.32F WCI  19
RENSSELAER +   FAIR      27  21  80 SE5       30.31F WCI  21
VALPARAISO     CLOUDY    24  15  68 S5        30.31F WCI  18

$$

LMZ046-743>745-030500-
SOUTHERN LAKE MICHIGAN

STATION/POSITION TIME  TEMP WIND        PRES
                       AIR  DIR/SP/G
                 (UTC) (F)  (DEG/KT/KT) (MB)
MICHIGAN CITY    0400   26  160/  9/ 12   N/A

$$

INZ004-005-014>016-021>024-030500-
NORTH CENTRAL INDIANA

CITY           SKY/WX    TMP DP  RH WIND       PRES   REMARKS
GOSHEN         CLOUDY    25  14  63 S7        30.34F WCI  17
LOGANSPORT +   CLOUDY    23  19  86 E6        30.33F WCI  16
PERU/GRISSOM   CLOUDY    23  16  73 SE6       30.31F WCI  16
ROCHESTER +    FAIR      27  18  69 SE3       30.34F
SOUTH BEND     CLOUDY    26  14  60 S7        30.33F WCI  18
WARSAW +       CLOUDY    25  14  63 S3        30.34F

$$

INZ006>009-017-018-025>027-030500-
NORTHEAST INDIANA

CITY           SKY/WX    TMP DP  RH WIND       PRES   REMARKS
ANGOLA *+      MOCLDY    21  12  68 S3        30.34S
AUBURN +       MOCLDY    25  16  68 CALM      30.36F
FORT WAYNE     CLOUDY    22  14  71 SE6       30.36F WCI  14
HUNTINGTON +   MOCLDY    22  10  61 SE3       30.35F

$$

INZ028-029-035-036-043>045-051>053-030500-
WEST CENTRAL INDIANA

CITY           SKY/WX    TMP DP  RH WIND       PRES   REMARKS
CRAWFORDSVL +  FAIR      22   9  57 E8        30.31F WCI  13
GREENCASTLE +  FAIR      25  12  58 E8        30.31F WCI  16
LAFAYETTE      CLOUDY    25  16  68 SE5       30.32F WCI  19
TERRE HAUTE    FAIR      27  15  61 E8        30.30F WCI  19

$$

INZ030>032-037>040-046>048-054>057-064-065-030500-
CENTRAL INDIANA

CITY           SKY/WX    TMP DP  RH WIND       PRES   REMARKS
CP ATTERBURY + FAIR      23  18  80 CALM      30.33F
FRANKFORT +    FAIR      20  15  79 E9        30.32F WCI   9
GREENWOOD *+   FAIR      25  12  58 E5        30.33F WCI  19
INDIANAPOLIS   CLOUDY    26  14  60 E7        30.31F WCI  18
-EAGLE CREEK   FAIR      25  15  66 E6        30.32F WCI  18
KOKOMO *+      FAIR      23  16  74 E3        30.34F
MARION +       CLOUDY    23  14  68 SE5       30.35F WCI  17
MT COMFORT *+  FAIR      21   9  58 E6        30.32F WCI  14
SHELBYVILLE    FAIR      25  15  66 E8        30.33F WCI  16
ZIONSVILLE +   FAIR      23  13  66 E6        30.32F WCI  15

$$

INZ033-034-041-042-049-050-058-059-030500-
EAST CENTRAL INDIANA

CITY           SKY/WX    TMP DP  RH WIND       PRES   REMARKS
MUNCIE         CLOUDY    23  14  68 SE5       30.34F WCI  17

$$

INZ060-061-067>069-081>083-085>088-030500-
SOUTHWEST INDIANA

CITY           SKY/WX    TMP DP  RH WIND       PRES   REMARKS
EVANSVILLE     FAIR      31  19  61 E5        30.28F WCI  26
HUNTINGBURG *+ FAIR      30  18  59 E8        30.30F WCI  23
WASHINGTON +   FAIR      27  15  60 E3        30.30F

$$

INZ062-063-066-070>080-084-089>092-030500-
SOUTH CENTRAL AND SOUTHEAST INDIANA

CITY           SKY/WX    TMP DP  RH WIND       PRES   REMARKS
BLOOMINGTON    FAIR      28  16  60 E7        30.30F WCI  21
NORTH VERNON + FAIR      28  16  59 E6        30.33F WCI  22
SEYMOUR +      FAIR      27  18  69 CALM      30.32F

$$



USA.gov is the U.S. government's official web portal to all federal, state and local government web resources and services.